#Datum;Uhrzeit;WR;Pac;DaySum;Status;WR;Pac;DaySum;Status;Pdc1;Udc;Temp;WR;Pac;DaySum;Status;Pdc1;Udc;Temp;WR;Pac;DaySum;Status;Pdc1;Udc;Temp;WR;Pac;DaySum;Status;Pdc1;Pdc2;Udc1;Udc2;Temp;WR;Pac;DaySum;Status;Pdc1;Pdc2;Udc1;Udc2;Temp;WR;Pac;DaySum;Status;Pdc1;Udc;Temp;WR;Pac;DaySum;Status;Pdc1;Udc;Temp;WR;Pac;DaySum;Status;Pdc1;Udc;Temp
22.11.18;23:55:00;1;224;13885;0;2;0;3197;0;0;0;0;3;0;1962;0;0;0;0;4;0;2706;0;0;0;0;5;0;6884;0;0;0;0;0;0;6;0;5124;0;0;0;0;0;0;7;0;3520;0;0;0;0;8;0;3531;0;0;0;0;9;0;1853;0;0;0;0
22.11.18;23:50:00;1;281;13866;0;2;0;3197;0;0;0;0;3;0;1962;0;0;0;0;4;0;2706;0;0;0;0;5;0;6884;0;0;0;0;0;0;6;0;5124;0;0;0;0;0;0;7;0;3520;0;0;0;0;8;0;3531;0;0;0;0;9;0;1853;0;0;0;0
22.11.18;23:45:00;1;306;13843;0;2;0;3197;0;0;0;0;3;0;1962;0;0;0;0;4;0;2706;0;0;0;0;5;0;6884;0;0;0;0;0;0;6;0;5124;0;0;0;0;0;0;7;0;3520;0;0;0;0;8;0;3531;0;0;0;0;9;0;1853;0;0;0;0
22.11.18;23:40:00;1;350;13816;0;2;0;3197;0;0;0;0;3;0;1962;0;0;0;0;4;0;2706;0;0;0;0;5;0;6884;0;0;0;0;0;0;6;0;5124;0;0;0;0;0;0;7;0;3520;0;0;0;0;8;0;3531;0;0;0;0;9;0;1853;0;0;0;0
22.11.18;23:35:00;1;323;13788;0;2;0;3197;0;0;0;0;3;0;1962;0;0;0;0;4;0;2706;0;0;0;0;5;0;6884;0;0;0;0;0;0;6;0;5124;0;0;0;0;0;0;7;0;3520;0;0;0;0;8;0;3531;0;0;0;0;9;0;1853;0;0;0;0
22.11.18;23:30:00;1;327;13761;0;2;0;3197;0;0;0;0;3;0;1962;0;0;0;0;4;0;2706;0;0;0;0;5;0;6884;0;0;0;0;0;0;6;0;5124;0;0;0;0;0;0;7;0;3520;0;0;0;0;8;0;3531;0;0;0;0;9;0;1853;0;0;0;0
22.11.18;23:25:00;1;292;13734;0;2;0;3197;0;0;0;0;3;0;1962;0;0;0;0;4;0;2706;0;0;0;0;5;0;6884;0;0;0;0;0;0;6;0;5124;0;0;0;0;0;0;7;0;3520;0;0;0;0;8;0;3531;0;0;0;0;9;0;1853;0;0;0;0
22.11.18;23:20:00;1;276;13708;0;2;0;3197;0;0;0;0;3;0;1962;0;0;0;0;4;0;2706;0;0;0;0;5;0;6884;0;0;0;0;0;0;6;0;5124;0;0;0;0;0;0;7;0;3520;0;0;0;0;8;0;3531;0;0;0;0;9;0;1853;0;0;0;0
22.11.18;23:15:00;1;282;13685;0;2;0;3197;0;0;0;0;3;0;1962;0;0;0;0;4;0;2706;0;0;0;0;5;0;6884;0;0;0;0;0;0;6;0;5124;0;0;0;0;0;0;7;0;3520;0;0;0;0;8;0;3531;0;0;0;0;9;0;1853;0;0;0;0
22.11.18;23:10:00;1;295;13661;0;2;0;3197;0;0;0;0;3;0;1962;0;0;0;0;4;0;2706;0;0;0;0;5;0;6884;0;0;0;0;0;0;6;0;5124;0;0;0;0;0;0;7;0;3520;0;0;0;0;8;0;3531;0;0;0;0;9;0;1853;0;0;0;0
22.11.18;23:05:00;1;308;13636;0;2;0;3197;0;0;0;0;3;0;1962;0;0;0;0;4;0;2706;0;0;0;0;5;0;6884;0;0;0;0;0;0;6;0;5124;0;0;0;0;0;0;7;0;3520;0;0;0;0;8;0;3531;0;0;0;0;9;0;1853;0;0;0;0
22.11.18;23:00:00;1;420;13608;0;2;0;3197;0;0;0;0;3;0;1962;0;0;0;0;4;0;2706;0;0;0;0;5;0;6884;0;0;0;0;0;0;6;0;5124;0;0;0;0;0;0;7;0;3520;0;0;0;0;8;0;3531;0;0;0;0;9;0;1853;0;0;0;0
22.11.18;22:55:00;1;404;13574;0;2;0;3197;0;0;0;0;3;0;1962;0;0;0;0;4;0;2706;0;0;0;0;5;0;6884;2;0;0;0;0;0;6;0;5124;2;0;0;0;0;0;7;0;3520;0;0;0;0;8;0;3531;0;0;0;0;9;0;1853;0;0;0;0
22.11.18;22:50:00;1;384;13540;0;2;0;3197;0;0;0;0;3;0;1962;0;0;0;0;4;0;2706;0;0;0;0;5;0;6884;2;0;0;0;0;0;6;0;5124;2;0;0;0;0;0;7;0;3520;0;0;0;0;8;0;3531;0;0;0;0;9;0;1853;0;0;0;0
22.11.18;22:45:00;1;393;13507;0;2;0;3197;0;0;0;0;3;0;1962;0;0;0;0;4;0;2706;0;0;0;0;5;0;6884;2;0;0;0;0;0;6;0;5124;2;0;0;0;0;0;7;0;3520;0;0;0;0;8;0;3531;0;0;0;0;9;0;1853;0;0;0;0
22.11.18;22:40:00;1;456;13474;0;2;0;3197;0;0;0;0;3;0;1962;0;0;0;0;4;0;2706;0;0;0;0;5;0;6884;2;0;0;0;0;0;6;0;5124;2;0;0;0;0;0;7;0;3520;0;0;0;0;8;0;3531;0;0;0;0;9;0;1853;0;0;0;0
22.11.18;22:35:00;1;458;13437;0;2;0;3197;0;0;0;0;3;0;1962;0;0;0;0;4;0;2706;0;0;0;0;5;0;6884;2;0;0;0;0;0;6;0;5124;2;0;0;0;0;0;7;0;3520;0;0;0;0;8;0;3531;0;0;0;0;9;0;1853;0;0;0;0
22.11.18;22:30:00;1;468;13398;0;2;0;3197;0;0;0;0;3;0;1962;0;0;0;0;4;0;2706;0;0;0;0;5;0;6884;2;0;0;0;0;0;6;0;5124;2;0;0;0;0;0;7;0;3520;0;0;0;0;8;0;3531;0;0;0;0;9;0;1853;0;0;0;0
22.11.18;22:25:00;1;419;13359;0;2;0;3197;0;0;0;0;3;0;1962;0;0;0;0;4;0;2706;0;0;0;0;5;0;6884;2;0;0;0;0;0;6;0;5124;2;0;0;0;0;0;7;0;3520;0;0;0;0;8;0;3531;0;0;0;0;9;0;1853;0;0;0;0
22.11.18;22:20:00;1;412;13325;0;2;0;3197;0;0;0;0;3;0;1962;0;0;0;0;4;0;2706;0;0;0;0;5;0;6884;2;0;0;0;0;0;6;0;5124;2;0;0;0;0;0;7;0;3520;0;0;0;0;8;0;3531;0;0;0;0;9;0;1853;0;0;0;0
22.11.18;22:15:00;1;398;13290;0;2;0;3197;0;0;0;0;3;0;1962;0;0;0;0;4;0;2706;0;0;0;0;5;0;6884;2;0;0;0;0;0;6;0;5124;2;0;0;0;0;0;7;0;3520;0;0;0;0;8;0;3531;0;0;0;0;9;0;1853;0;0;0;0
22.11.18;22:10:00;1;402;13257;0;2;0;3197;0;0;0;0;3;0;1962;0;0;0;0;4;0;2706;0;0;0;0;5;0;6884;2;0;0;0;0;0;6;0;5124;2;0;0;0;0;0;7;0;3520;0;0;0;0;8;0;3531;0;0;0;0;9;0;1853;0;0;0;0
22.11.18;22:05:00;1;415;13223;0;2;0;3197;0;0;0;0;3;0;1962;0;0;0;0;4;0;2706;0;0;0;0;5;0;6884;2;0;0;0;0;0;6;0;5124;2;0;0;0;0;0;7;0;3520;0;0;0;0;8;0;3531;0;0;0;0;9;0;1853;0;0;0;0
22.11.18;22:00:00;1;410;13186;0;2;0;3197;0;0;0;0;3;0;1962;0;0;0;0;4;0;2706;0;0;0;0;5;0;6884;2;0;0;0;0;0;6;0;5124;2;0;0;0;0;0;7;0;3520;0;0;0;0;8;0;3531;0;0;0;0;9;0;1853;0;0;0;0
22.11.18;21:55:00;1;475;13151;0;2;0;3197;0;0;0;0;3;0;1962;0;0;0;0;4;0;2706;0;0;0;0;5;0;6884;2;0;0;0;0;0;6;0;5124;2;0;0;0;0;0;7;0;3520;0;0;0;0;8;0;3531;0;0;0;0;9;0;1853;0;0;0;0
22.11.18;21:50:00;1;525;13111;0;2;0;3197;0;0;0;0;3;0;1962;0;0;0;0;4;0;2706;0;0;0;0;5;0;6884;2;0;0;0;0;0;6;0;5124;2;0;0;0;0;0;7;0;3520;0;0;0;0;8;0;3531;0;0;0;0;9;0;1853;0;0;0;0
22.11.18;21:45:00;1;526;13068;0;2;0;3197;0;0;0;0;3;0;1962;0;0;0;0;4;0;2706;0;0;0;0;5;0;6884;2;0;0;0;0;0;6;0;5124;2;0;0;0;0;0;7;0;3520;0;0;0;0;8;0;3531;0;0;0;0;9;0;1853;0;0;0;0
22.11.18;21:40:00;1;549;13023;0;2;0;3197;0;0;0;0;3;0;1962;0;0;0;0;4;0;2706;0;0;0;0;5;0;6884;2;0;0;0;0;0;6;0;5124;2;0;0;0;0;0;7;0;3520;0;0;0;0;8;0;3531;0;0;0;0;9;0;1853;0;0;0;0
22.11.18;21:35:00;1;841;12976;0;2;0;3197;0;0;0;0;3;0;1962;0;0;0;0;4;0;2706;0;0;0;0;5;0;6884;2;0;0;0;0;0;6;0;5124;2;0;0;0;0;0;7;0;3520;0;0;0;0;8;0;3531;0;0;0;0;9;0;1853;0;0;0;0
22.11.18;21:30:00;1;855;12903;0;2;0;3197;0;0;0;0;3;0;1962;0;0;0;0;4;0;2706;0;0;0;0;5;0;6884;2;0;0;0;0;0;6;0;5124;2;0;0;0;0;0;7;0;3520;0;0;0;0;8;0;3531;0;0;0;0;9;0;1853;0;0;0;0
22.11.18;21:25:00;1;556;12836;0;2;0;3197;0;0;0;0;3;0;1962;0;0;0;0;4;0;2706;0;0;0;0;5;0;6884;2;0;0;0;0;0;6;0;5124;2;0;0;0;0;0;7;0;3520;0;0;0;0;8;0;3531;0;0;0;0;9;0;1853;0;0;0;0
22.11.18;21:20:00;1;683;12790;0;2;0;3197;0;0;0;0;3;0;1962;0;0;0;0;4;0;2706;0;0;0;0;5;0;6884;2;0;0;0;0;0;6;0;5124;2;0;0;0;0;0;7;0;3520;0;0;0;0;8;0;3531;0;0;0;0;9;0;1853;0;0;0;0
22.11.18;21:15:00;1;440;12743;0;2;0;3197;0;0;0;0;3;0;1962;0;0;0;0;4;0;2706;0;0;0;0;5;0;6884;2;0;0;0;0;0;6;0;5124;2;0;0;0;0;0;7;0;3520;0;0;0;0;8;0;3531;0;0;0;0;9;0;1853;0;0;0;0
22.11.18;21:10:00;1;456;12706;0;2;0;3197;0;0;0;0;3;0;1962;0;0;0;0;4;0;2706;0;0;0;0;5;0;6884;2;0;0;0;0;0;6;0;5124;2;0;0;0;0;0;7;0;3520;0;0;0;0;8;0;3531;0;0;0;0;9;0;1853;0;0;0;0
22.11.18;21:05:00;1;430;12668;0;2;0;3197;0;0;0;0;3;0;1962;0;0;0;0;4;0;2706;0;0;0;0;5;0;6884;2;0;0;0;0;0;6;0;5124;2;0;0;0;0;0;7;0;3520;0;0;0;0;8;0;3531;0;0;0;0;9;0;1853;0;0;0;0
22.11.18;21:00:00;1;471;12632;0;2;0;3197;0;0;0;0;3;0;1962;0;0;0;0;4;0;2706;0;0;0;0;5;0;6884;2;0;0;0;0;0;6;0;5124;2;0;0;0;0;0;7;0;3520;0;0;0;0;8;0;3531;0;0;0;0;9;0;1853;0;0;0;0
22.11.18;20:55:00;1;571;12589;0;2;0;3197;0;0;0;0;3;0;1962;0;0;0;0;4;0;2706;0;0;0;0;5;0;6884;2;0;0;0;0;0;6;0;5124;2;0;0;0;0;0;7;0;3520;0;0;0;0;8;0;3531;0;0;0;0;9;0;1853;0;0;0;0
22.11.18;20:50:00;1;554;12539;0;2;0;3197;0;0;0;0;3;0;1962;0;0;0;0;4;0;2706;0;0;0;0;5;0;6884;2;0;0;0;0;0;6;0;5124;2;0;0;0;0;0;7;0;3520;0;0;0;0;8;0;3531;0;0;0;0;9;0;1853;0;0;0;0
22.11.18;20:45:00;1;703;12490;0;2;0;3197;0;0;0;0;3;0;1962;0;0;0;0;4;0;2706;0;0;0;0;5;0;6884;2;0;0;0;0;0;6;0;5124;2;0;0;0;0;0;7;0;3520;0;0;0;0;8;0;3531;0;0;0;0;9;0;1853;0;0;0;0
22.11.18;20:40:00;1;710;12425;0;2;0;3197;0;0;0;0;3;0;1962;0;0;0;0;4;0;2706;0;0;0;0;5;0;6884;2;0;0;0;0;0;6;0;5124;2;0;0;0;0;0;7;0;3520;0;0;0;0;8;0;3531;0;0;0;0;9;0;1853;0;0;0;0
22.11.18;20:35:00;1;771;12361;0;2;0;3197;0;0;0;0;3;0;1962;0;0;0;0;4;0;2706;0;0;0;0;5;0;6884;2;0;0;0;0;0;6;0;5124;2;0;0;0;0;0;7;0;3520;0;0;0;0;8;0;3531;0;0;0;0;9;0;1853;0;0;0;0
22.11.18;20:30:00;1;758;12298;0;2;0;3197;0;0;0;0;3;0;1962;0;0;0;0;4;0;2706;0;0;0;0;5;0;6884;2;0;0;0;0;0;6;0;5124;2;0;0;0;0;0;7;0;3520;0;0;0;0;8;0;3531;0;0;0;0;9;0;1853;0;0;0;0
22.11.18;20:25:00;1;673;12237;0;2;0;3197;0;0;0;0;3;0;1962;0;0;0;0;4;0;2706;0;0;0;0;5;0;6884;2;0;0;0;0;0;6;0;5124;2;0;0;0;0;0;7;0;3520;0;0;0;0;8;0;3531;0;0;0;0;9;0;1853;0;0;0;0
22.11.18;20:20:00;1;611;12181;0;2;0;3197;0;0;0;0;3;0;1962;0;0;0;0;4;0;2706;0;0;0;0;5;0;6884;2;0;0;0;0;0;6;0;5124;2;0;0;0;0;0;7;0;3520;0;0;0;0;8;0;3531;0;0;0;0;9;0;1853;0;0;0;0
22.11.18;20:15:00;1;621;12130;0;2;0;3197;0;0;0;0;3;0;1962;0;0;0;0;4;0;2706;0;0;0;0;5;0;6884;2;0;0;0;0;0;6;0;5124;2;0;0;0;0;0;7;0;3520;0;0;0;0;8;0;3531;0;0;0;0;9;0;1853;0;0;0;0
22.11.18;20:10:00;1;710;12075;0;2;0;3197;0;0;0;0;3;0;1962;0;0;0;0;4;0;2706;0;0;0;0;5;0;6884;2;0;0;0;0;0;6;0;5124;2;0;0;0;0;0;7;0;3520;0;0;0;0;8;0;3531;0;0;0;0;9;0;1853;0;0;0;0
22.11.18;20:05:00;1;719;12018;0;2;0;3197;0;0;0;0;3;0;1962;0;0;0;0;4;0;2706;0;0;0;0;5;0;6884;2;0;0;0;0;0;6;0;5124;2;0;0;0;0;0;7;0;3520;0;0;0;0;8;0;3531;0;0;0;0;9;0;1853;0;0;0;0
22.11.18;20:00:00;1;729;11960;0;2;0;3197;0;0;0;0;3;0;1962;0;0;0;0;4;0;2706;0;0;0;0;5;0;6884;2;0;0;0;0;0;6;0;5124;2;0;0;0;0;0;7;0;3520;0;0;0;0;8;0;3531;0;0;0;0;9;0;1853;0;0;0;0
22.11.18;19:55:00;1;738;11900;0;2;0;3197;0;0;0;0;3;0;1962;0;0;0;0;4;0;2706;0;0;0;0;5;0;6884;2;0;0;0;0;0;6;0;5124;2;0;0;0;0;0;7;0;3520;0;0;0;0;8;0;3531;0;0;0;0;9;0;1853;0;0;0;0
22.11.18;19:50:00;1;731;11837;0;2;0;3197;0;0;0;0;3;0;1962;0;0;0;0;4;0;2706;0;0;0;0;5;0;6884;2;0;0;0;0;0;6;0;5124;2;0;0;0;0;0;7;0;3520;0;0;0;0;8;0;3531;0;0;0;0;9;0;1853;0;0;0;0
22.11.18;19:45:00;1;764;11778;0;2;0;3197;0;0;0;0;3;0;1962;0;0;0;0;4;0;2706;0;0;0;0;5;0;6884;2;0;0;0;0;0;6;0;5124;2;0;0;0;0;0;7;0;3520;0;0;0;0;8;0;3531;0;0;0;0;9;0;1853;0;0;0;0
22.11.18;19:40:00;1;731;11714;0;2;0;3197;0;0;0;0;3;0;1962;0;0;0;0;4;0;2706;0;0;0;0;5;0;6884;2;0;0;0;0;0;6;0;5124;2;0;0;0;0;0;7;0;3520;0;0;0;0;8;0;3531;0;0;0;0;9;0;1853;0;0;0;0
22.11.18;19:35:00;1;875;11651;0;2;0;3197;0;0;0;0;3;0;1962;0;0;0;0;4;0;2706;0;0;0;0;5;0;6884;2;0;0;0;0;0;6;0;5124;2;0;0;0;0;0;7;0;3520;0;0;0;0;8;0;3531;0;0;0;0;9;0;1853;0;0;0;0
22.11.18;19:30:00;1;967;11575;0;2;0;3197;0;0;0;0;3;0;1962;0;0;0;0;4;0;2706;0;0;0;0;5;0;6884;2;0;0;0;0;0;6;0;5124;2;0;0;0;0;0;7;0;3520;0;0;0;0;8;0;3531;0;0;0;0;9;0;1853;0;0;0;0
22.11.18;19:25:00;1;1140;11489;0;2;0;3197;0;0;0;0;3;0;1962;0;0;0;0;4;0;2706;0;0;0;0;5;0;6884;2;0;0;0;0;0;6;0;5124;2;0;0;0;0;0;7;0;3520;0;0;0;0;8;0;3531;0;0;0;0;9;0;1853;0;0;0;0
22.11.18;19:20:00;1;882;11407;0;2;0;3197;0;0;0;0;3;0;1962;0;0;0;0;4;0;2706;0;0;0;0;5;0;6884;2;0;0;0;0;0;6;0;5124;2;0;0;0;0;0;7;0;3520;0;0;0;0;8;0;3531;0;0;0;0;9;0;1853;0;0;0;0
22.11.18;19:15:00;1;724;11334;0;2;0;3197;0;0;0;0;3;0;1962;0;0;0;0;4;0;2706;0;0;0;0;5;0;6884;2;0;0;0;0;0;6;0;5124;2;0;0;0;0;0;7;0;3520;0;0;0;0;8;0;3531;0;0;0;0;9;0;1853;0;0;0;0
22.11.18;19:10:00;1;881;11273;0;2;0;3197;0;0;0;0;3;0;1962;0;0;0;0;4;0;2706;0;0;0;0;5;0;6884;2;0;0;0;0;0;6;0;5124;2;0;0;0;0;0;7;0;3520;0;0;0;0;8;0;3531;0;0;0;0;9;0;1853;0;0;0;0
22.11.18;19:05:00;1;813;11209;0;2;0;3197;0;0;0;0;3;0;1962;0;0;0;0;4;0;2706;0;0;0;0;5;0;6884;2;0;0;0;0;0;6;0;5124;2;0;0;0;0;0;7;0;3520;0;0;0;0;8;0;3531;0;0;0;0;9;0;1853;0;0;0;0
22.11.18;19:00:00;1;1743;11139;0;2;0;3197;0;0;0;0;3;0;1962;0;0;0;0;4;0;2706;0;0;0;0;5;0;6884;2;0;0;0;0;0;6;0;5124;2;0;0;0;0;0;7;0;3520;0;0;0;0;8;0;3531;0;0;0;0;9;0;1853;0;0;0;0
22.11.18;18:55:00;1;1562;11008;0;2;0;3197;0;0;0;0;3;0;1962;0;0;0;0;4;0;2706;0;0;0;0;5;0;6884;2;0;0;0;0;0;6;0;5124;2;0;0;0;0;0;7;0;3520;0;0;0;0;8;0;3531;0;0;0;0;9;0;1853;0;0;0;0
22.11.18;18:50:00;1;2917;10854;0;2;0;3197;0;0;0;0;3;0;1962;0;0;0;0;4;0;2706;0;0;0;0;5;0;6884;2;0;0;0;0;0;6;0;5124;2;0;0;0;0;0;7;0;3520;0;0;0;0;8;0;3531;0;0;0;0;9;0;1853;0;0;0;0
22.11.18;18:45:00;1;2922;10613;0;2;0;3197;0;0;0;0;3;0;1962;0;0;0;0;4;0;2706;0;0;0;0;5;0;6884;2;0;0;0;0;0;6;0;5124;2;0;0;0;0;0;7;0;3520;0;0;0;0;8;0;3531;0;0;0;0;9;0;1853;0;0;0;0
22.11.18;18:40:00;1;2157;10370;0;2;0;3197;0;0;0;0;3;0;1962;0;0;0;0;4;0;2706;0;0;0;0;5;0;6884;2;0;0;0;0;0;6;0;5124;2;0;0;0;0;0;7;0;3520;0;0;0;0;8;0;3531;0;0;0;0;9;0;1853;0;0;0;0
22.11.18;18:35:00;1;1026;10199;0;2;0;3197;0;0;0;0;3;0;1962;0;0;0;0;4;0;2706;0;0;0;0;5;0;6884;2;0;0;0;0;0;6;0;5124;2;0;0;0;0;0;7;0;3520;0;0;0;0;8;0;3531;0;0;0;0;9;0;1853;0;0;0;0
22.11.18;18:30:00;1;1050;10113;0;2;0;3197;0;0;0;0;3;0;1962;0;0;0;0;4;0;2706;0;0;0;0;5;0;6884;2;0;0;0;0;0;6;0;5124;2;0;0;0;0;0;7;0;3520;0;0;0;0;8;0;3531;0;0;0;0;9;0;1853;0;0;0;0
22.11.18;18:25:00;1;1048;10025;0;2;0;3197;0;0;0;0;3;0;1962;0;0;0;0;4;0;2706;0;0;0;0;5;0;6884;2;0;0;0;0;0;6;0;5124;2;0;0;0;0;0;7;0;3520;0;0;0;0;8;0;3531;0;0;0;0;9;0;1853;0;0;0;0
22.11.18;18:20:00;1;1742;9940;0;2;0;3197;0;0;0;0;3;0;1962;0;0;0;0;4;0;2706;0;0;0;0;5;0;6884;2;0;0;0;0;0;6;0;5124;2;0;0;0;0;0;7;0;3520;0;0;0;0;8;0;3531;0;0;0;0;9;0;1853;0;0;0;0
22.11.18;18:15:00;1;1019;9771;0;2;0;3197;0;0;0;0;3;0;1962;0;0;0;0;4;0;2706;0;0;0;0;5;0;6884;2;0;0;0;0;0;6;0;5124;2;0;0;0;0;0;7;0;3520;0;0;0;0;8;0;3531;0;0;0;0;9;0;1853;0;0;0;0
22.11.18;18:10:00;1;1032;9687;0;2;0;3197;0;0;0;0;3;0;1962;0;0;0;0;4;0;2706;0;0;0;0;5;0;6884;2;0;0;0;0;0;6;0;5124;2;0;0;0;0;0;7;0;3520;0;0;0;0;8;0;3531;0;0;0;0;9;0;1853;0;0;0;0
22.11.18;18:05:00;1;1012;9602;0;2;0;3197;0;0;0;0;3;0;1962;0;0;0;0;4;0;2706;0;0;0;0;5;0;6884;2;0;0;0;0;0;6;0;5124;2;0;0;0;0;0;7;0;3520;0;0;0;0;8;0;3531;0;0;0;0;9;0;1853;0;0;0;0
22.11.18;18:00:00;1;1041;9517;0;2;0;3197;0;0;0;0;3;0;1962;0;0;0;0;4;0;2706;0;0;0;0;5;0;6884;2;0;0;0;0;0;6;0;5124;2;0;0;0;0;0;7;0;3520;0;0;0;0;8;0;3531;0;0;0;0;9;0;1853;0;0;0;0
22.11.18;17:55:00;1;1067;9429;0;2;0;3197;0;0;0;0;3;0;1962;0;0;0;0;4;0;2706;0;0;0;0;5;0;6884;2;0;0;0;0;0;6;0;5124;2;0;0;0;0;0;7;0;3520;0;0;0;0;8;0;3531;0;0;0;0;9;0;1853;0;0;0;0
22.11.18;17:50:00;1;3097;9336;0;2;0;3197;0;0;0;0;3;0;1962;0;0;0;0;4;0;2706;0;0;0;0;5;0;6884;2;0;0;0;0;0;6;0;5124;2;0;0;0;0;0;7;0;3520;0;0;0;0;8;0;3531;0;0;0;0;9;0;1853;0;0;0;0
22.11.18;17:45:00;1;3063;9080;0;2;0;3197;0;0;0;0;3;0;1962;0;0;0;0;4;0;2706;0;0;0;0;5;0;6884;2;0;0;0;0;0;6;0;5124;2;0;0;0;0;0;7;0;3520;0;0;0;0;8;0;3531;0;0;0;0;9;0;1853;0;0;0;0
22.11.18;17:40:00;1;3073;8823;0;2;0;3197;0;0;0;0;3;0;1962;0;0;0;0;4;0;2706;0;0;0;0;5;0;6884;2;0;0;0;0;0;6;0;5124;2;0;0;0;0;0;7;0;3520;0;0;0;0;8;0;3531;0;0;0;0;9;0;1853;0;0;0;0
22.11.18;17:35:00;1;3066;8566;0;2;0;3197;0;0;0;0;3;0;1962;0;0;0;0;4;0;2706;0;0;0;0;5;0;6884;2;0;0;0;0;0;6;0;5124;2;0;0;0;0;0;7;0;3520;0;0;0;0;8;0;3531;0;0;0;0;9;0;1853;0;0;0;0
22.11.18;17:30:00;1;3064;8310;0;2;0;3197;0;0;0;0;3;0;1962;0;0;0;0;4;0;2706;0;0;0;0;5;0;6884;2;0;0;0;0;0;6;0;5124;2;0;0;0;0;0;7;0;3520;0;0;0;0;8;0;3531;0;0;0;0;9;0;1853;0;0;0;0
22.11.18;17:25:00;1;4091;8055;0;2;0;3197;0;0;0;0;3;0;1962;0;0;0;0;4;0;2706;0;0;0;0;5;0;6884;2;0;0;0;0;0;6;0;5124;2;0;0;0;0;0;7;0;3520;0;0;0;0;8;0;3531;0;0;0;0;9;0;1853;0;0;0;0
22.11.18;17:20:00;1;3975;7711;0;2;0;3197;0;0;0;0;3;0;1962;0;0;0;0;4;0;2706;0;0;0;0;5;0;6884;2;0;0;0;0;0;6;0;5124;2;0;0;0;0;0;7;0;3520;0;0;0;0;8;0;3531;0;0;0;0;9;0;1853;0;0;0;0
22.11.18;17:15:00;1;3841;7330;0;2;0;3197;0;0;0;0;3;0;1962;0;0;0;0;4;0;2706;0;0;0;0;5;0;6884;2;0;0;0;0;0;6;0;5124;2;0;0;0;0;0;7;0;3520;0;0;0;0;8;0;3531;0;0;0;0;9;0;1853;0;0;0;0
22.11.18;17:10:00;1;4960;7003;0;2;0;3197;0;0;0;0;3;0;1962;0;0;0;0;4;0;2706;0;0;0;0;5;0;6884;2;0;0;0;0;0;6;0;5124;2;0;0;0;0;0;7;0;3520;0;0;0;0;8;0;3531;0;0;0;0;9;0;1853;0;0;0;0
22.11.18;17:05:00;1;5000;6504;0;2;0;3197;0;0;0;0;3;0;1962;0;0;0;0;4;0;2706;0;0;0;0;5;0;6884;2;0;0;0;0;0;6;0;5124;2;0;0;0;0;0;7;0;3520;0;0;0;0;8;0;3531;0;0;0;0;9;0;1853;0;0;0;0
22.11.18;17:00:00;1;5000;5933;0;2;0;3197;0;0;0;0;3;0;1962;0;0;0;0;4;0;2706;0;0;0;0;5;0;6884;2;0;0;0;0;0;6;0;5124;2;0;0;0;0;0;7;0;3520;0;0;0;0;8;0;3531;0;0;0;0;9;0;1853;0;0;0;0
22.11.18;16:55:00;1;4940;5351;0;2;0;3197;0;0;0;0;3;0;1962;0;0;0;0;4;0;2706;0;0;0;0;5;0;6884;2;0;0;0;0;0;6;0;5124;2;0;0;0;0;0;7;0;3520;0;0;0;0;8;0;3531;0;0;0;0;9;0;1853;0;0;0;0
22.11.18;16:50:00;1;3010;4900;0;2;0;3197;0;0;0;0;3;0;1962;0;0;0;0;4;0;2706;0;0;0;0;5;0;6884;2;0;0;0;0;0;6;0;5124;2;0;0;0;0;0;7;0;3520;0;0;0;0;8;0;3531;0;0;0;0;9;0;1853;0;0;0;0
22.11.18;16:45:00;1;864;4691;0;2;0;3197;0;0;0;0;3;0;1962;0;0;0;0;4;0;2706;0;0;0;0;5;0;6884;2;0;0;0;0;0;6;0;5124;2;0;0;0;0;0;7;0;3520;0;0;0;0;8;0;3531;0;0;0;0;9;0;1853;0;0;0;0
22.11.18;16:40:00;1;740;4620;0;2;0;3197;0;0;108;4;3;0;1962;0;0;237;12;4;0;2706;0;0;0;0;5;0;6884;2;0;0;0;0;0;6;0;5124;2;0;0;0;0;0;7;0;3520;0;0;0;0;8;0;3531;0;0;0;0;9;0;1853;0;0;0;0
22.11.18;16:35:00;1;516;4558;0;2;0;3197;6;0;282;11;3;0;1962;6;0;311;14;4;0;2706;0;0;58;9;5;0;6884;2;0;0;0;0;0;6;0;5124;2;0;0;0;0;0;7;0;3520;0;0;0;0;8;0;3531;0;0;0;0;9;0;1853;0;0;0;0
22.11.18;16:30:00;1;481;4513;0;2;0;3197;6;0;312;11;3;0;1962;6;0;374;14;4;0;2706;1;0;96;11;5;0;6884;2;0;1;131;130;9;6;0;5124;1;1;0;11;11;6;7;0;3520;0;0;0;0;8;0;3531;0;0;0;0;9;0;1853;0;0;0;0
22.11.18;16:25:00;1;480;4472;0;2;0;3197;6;0;334;11;3;0;1962;6;0;412;14;4;0;2706;1;0;118;11;5;0;6884;1;0;0;335;358;22;6;0;5124;23;6;4;180;401;21;7;0;3520;0;0;50;3;8;0;3531;0;0;101;5;9;0;1853;0;0;216;8
22.11.18;16:20:00;1;465;4432;0;2;0;3197;6;0;353;11;3;0;1962;6;1;426;14;4;0;2706;1;0;142;12;5;0;6884;26;0;0;381;381;22;6;0;5124;23;4;3;181;498;21;7;0;3520;6;0;282;15;8;0;3531;6;0;288;14;9;0;1853;6;0;306;11
22.11.18;16:15:00;1;584;4381;0;2;0;3197;6;0;360;11;3;0;1962;6;0;445;14;4;0;2706;1;0;154;12;5;0;6884;23;0;1;393;436;23;6;0;5124;23;7;4;181;519;22;7;0;3520;6;0;298;15;8;0;3531;6;0;304;15;9;0;1853;6;0;318;11
22.11.18;16:10:00;1;585;4329;0;2;0;3197;6;0;375;11;3;1;1962;3;4;427;15;4;0;2706;1;0;179;12;5;7;6884;26;0;2;398;577;23;6;0;5124;23;5;3;181;545;22;7;0;3520;6;0;342;15;8;0;3531;6;0;210;9;9;0;1853;6;0;370;11
22.11.18;16:05:00;1;2522;4251;0;2;0;3197;6;0;384;12;3;0;1962;6;2;462;15;4;0;2706;1;0;195;13;5;0;6883;23;0;0;415;649;23;6;0;5124;23;6;3;182;558;23;7;0;3520;6;0;378;15;8;0;3531;0;0;309;12;9;0;1853;6;0;401;12
22.11.18;16:00:00;1;2343;4041;0;2;0;3197;6;0;392;12;3;2;1962;6;5;453;15;4;0;2706;1;0;209;13;5;13;6883;4;0;2;408;645;24;6;6;5124;23;3;9;494;547;23;7;0;3520;6;0;389;16;8;0;3531;6;0;395;15;9;0;1853;0;0;284;8
22.11.18;15:55:00;1;312;3850;0;2;3;3197;6;7;401;12;3;1;1962;6;6;500;15;4;0;2706;3;0;205;13;5;83;6882;4;18;26;375;595;25;6;56;5123;4;21;30;467;444;24;7;0;3520;6;5;437;16;8;3;3531;3;5;429;15;9;2;1853;6;2;490;12
22.11.18;15:50:00;1;297;3828;0;2;5;3197;6;9;412;12;3;1;1962;6;6;500;15;4;1;2706;3;1;199;13;5;118;6875;4;42;44;375;595;25;6;80;5118;4;32;43;467;444;24;7;1;3520;6;4;468;16;8;3;3531;6;10;448;15;9;3;1853;4;7;491;12
22.11.18;15:45:00;1;304;3803;0;2;36;3196;6;54;370;13;3;0;1962;6;0;549;15;4;7;2706;3;7;199;14;5;149;6864;4;53;63;374;595;25;6;100;5111;4;38;50;467;444;24;7;2;3520;6;9;474;16;8;3;3530;6;8;474;16;9;2;1852;3;12;497;12
22.11.18;15:40:00;1;306;3778;0;2;4;3194;6;7;412;13;3;4;1962;4;13;491;15;4;0;2706;3;0;230;14;5;114;6852;4;39;42;375;595;25;6;79;5103;4;32;43;467;444;24;7;8;3520;6;14;446;16;8;1;3530;6;7;474;16;9;0;1852;6;3;522;12
22.11.18;15:35:00;1;281;3752;0;2;21;3193;6;31;399;13;3;5;1961;6;11;518;16;4;14;2706;3;15;199;14;5;129;6843;4;46;49;375;595;25;6;86;5096;4;35;46;467;444;24;7;0;3519;6;0;291;10;8;0;3530;6;5;467;16;9;0;1852;6;3;512;12
22.11.18;15:30:00;1;262;3729;0;2;50;3192;4;76;360;14;3;6;1961;6;15;502;16;4;15;2705;3;15;199;14;5;155;6831;4;56;63;374;595;25;6;105;5089;4;46;60;467;444;24;7;6;3519;0;10;316;11;8;13;3530;4;20;460;16;9;2;1852;6;5;535;13
22.11.18;15:25:00;1;276;3707;0;2;59;3187;4;85;358;14;3;5;1960;6;11;526;16;4;30;2703;3;31;198;14;5;168;6818;4;67;65;375;595;25;6;112;5080;4;54;70;467;444;24;7;0;3518;6;0;507;17;8;0;3529;6;0;508;17;9;2;1852;6;7;532;13
22.11.18;15:20:00;1;216;3684;0;2;105;3182;4;133;366;14;3;41;1960;6;66;499;16;4;59;2701;3;61;198;14;5;255;6804;4;115;110;375;595;25;6;171;5070;4;78;89;467;444;24;7;65;3518;4;91;394;17;8;61;3529;4;93;409;17;9;2;1852;4;5;544;13
22.11.18;15:15:00;1;227;3665;0;2;136;3174;4;166;374;14;3;78;1957;4;115;487;17;4;96;2696;3;100;205;14;5;321;6782;4;149;136;375;595;25;6;212;5055;4;104;113;467;444;24;7;88;3513;4;113;315;13;8;112;3524;4;141;406;17;9;23;1851;3;32;533;13
22.11.18;15:10:00;1;228;3646;0;2;179;3162;4;210;378;14;3;103;1950;4;140;497;17;4;132;2688;5;137;223;14;5;398;6755;4;198;177;386;595;25;6;275;5037;4;135;162;466;493;24;7;158;3504;4;180;405;18;8;154;3515;4;186;418;17;9;82;1849;4;106;478;14
22.11.18;15:05:00;1;227;3627;0;2;230;3148;4;264;382;15;3;138;1942;4;177;500;17;4;182;2677;5;189;228;15;5;491;6721;4;235;215;408;620;25;6;366;5014;4;179;204;558;548;24;7;123;3491;4;143;259;10;8;207;3502;4;243;433;17;9;112;1842;4;137;502;14
22.11.18;15:00:00;1;212;3609;0;2;310;3128;4;345;390;15;3;189;1930;4;230;510;17;4;251;2662;5;261;231;15;5;630;6680;4;313;276;408;638;25;6;468;4983;4;244;256;578;560;24;7;307;3474;4;335;468;18;8;301;3484;4;339;460;17;9;134;1830;0;157;438;11
22.11.18;14:55:00;1;220;3591;0;2;412;3103;4;449;402;15;3;253;1915;4;294;513;17;4;343;2641;5;357;235;15;5;812;6626;4;405;352;411;651;25;6;605;4943;4;301;319;575;568;24;7;432;3449;4;464;469;18;8;429;3460;4;465;461;17;9;224;1820;4;256;506;15
22.11.18;14:50:00;1;253;3572;0;2;501;3068;4;542;397;15;3;309;1894;4;354;509;17;4;418;2613;5;435;240;15;5;961;6558;4;481;416;416;679;25;6;727;4891;4;363;375;587;563;24;7;340;3413;4;372;315;12;8;523;3424;4;565;464;17;9;276;1801;4;312;519;15
22.11.18;14:45:00;1;253;3551;0;2;578;3027;4;622;400;15;3;356;1868;4;403;514;18;4;480;2578;5;500;241;15;5;1079;6476;4;543;470;412;668;25;6;812;4830;4;398;403;589;568;24;7;641;3370;4;676;471;18;8;370;3380;4;399;286;10;9;331;1778;4;373;521;15
22.11.18;14:40:00;1;257;3530;0;2;653;2979;4;699;403;16;3;410;1838;4;458;513;18;4;555;2538;5;578;241;15;5;1230;6385;4;635;536;416;673;25;6;931;4761;4;430;444;588;565;24;7;631;3297;0;675;383;14;8;770;3330;4;819;469;17;9;416;1751;4;460;529;15
22.11.18;14:35:00;1;212;3508;0;2;679;2924;4;728;407;16;3;424;1804;4;475;501;18;4;585;2492;5;609;245;15;5;1349;6282;4;687;593;427;688;25;6;1023;4682;4;533;530;590;568;24;7;653;3237;0;696;373;14;8;806;3266;4;858;480;17;9;433;1717;4;478;534;15
22.11.18;14:30:00;1;211;3490;0;2;712;2868;4;759;402;15;3;446;1769;4;499;509;17;4;616;2443;5;642;241;15;5;1446;6168;4;743;627;429;682;25;6;1102;4596;4;572;585;591;573;24;7;878;3187;4;926;475;18;8;877;3199;4;925;472;17;9;470;1680;4;515;538;15
22.11.18;14:25:00;1;212;3473;0;2;652;2809;4;697;406;15;3;408;1732;4;458;515;17;4;566;2392;5;590;242;15;5;1359;6048;4;696;593;423;683;25;6;1028;4505;4;509;523;594;575;24;7;799;3114;4;853;475;18;8;797;3126;4;849;478;17;9;431;1641;4;473;526;15
22.11.18;14:20:00;1;212;3455;0;2;609;2754;4;653;402;15;3;379;1698;4;426;500;17;4;525;2345;5;547;239;15;5;1272;5935;4;654;554;422;676;25;6;970;4419;4;480;500;591;569;24;7;742;3047;4;797;480;17;8;752;3059;4;796;472;17;9;401;1605;4;442;527;15
22.11.18;14:15:00;1;210;3437;0;2;606;2703;4;651;404;15;3;382;1666;4;431;513;17;4;518;2301;5;539;240;15;5;1236;5830;4;625;534;418;667;25;6;936;4338;4;468;482;592;564;24;7;751;2985;4;794;471;17;8;447;2969;0;482;285;10;9;402;1571;4;441;530;15
22.11.18;14:10:00;1;209;3419;0;2;612;2653;4;656;401;15;3;382;1634;4;431;505;17;4;528;2257;5;549;237;15;5;1265;5726;4;647;552;424;691;25;6;965;4260;4;485;489;596;571;24;7;778;2922;4;827;477;18;8;619;2935;4;654;371;13;9;418;1538;4;461;522;15
22.11.18;14:05:00;1;209;3402;0;2;572;2601;4;616;408;15;3;360;1602;4;407;511;17;4;495;2213;5;516;239;15;5;1205;5620;4;630;528;412;674;25;6;927;4180;4;463;475;584;573;24;7;590;2857;4;624;386;14;8;734;2869;4;785;477;17;9;392;1504;4;435;526;15
22.11.18;14:00:00;1;211;3384;0;2;617;2554;4;663;401;15;3;385;1572;4;435;516;17;4;533;2172;5;555;239;15;5;1310;5518;4;673;569;418;679;24;6;990;4102;4;505;510;597;568;24;7;767;2795;4;810;480;18;8;626;2798;0;670;384;14;9;405;1471;4;448;524;15
22.11.18;13:55:00;1;232;3367;0;2;660;2502;4;705;404;15;3;413;1540;4;463;519;17;4;571;2128;5;595;244;15;5;1415;5408;4;730;619;425;685;24;6;1078;4019;4;564;575;596;573;24;7;814;2733;4;864;479;17;8;814;2747;4;859;475;17;9;437;1437;4;481;530;15
22.11.18;13:50:00;1;254;3347;0;2;659;2447;4;705;409;15;3;417;1505;4;466;513;17;4;577;2080;5;601;242;14;5;1445;5289;4;744;627;423;688;24;6;1089;3928;4;541;542;594;570;24;7;853;2663;4;901;477;17;8;847;2678;4;897;480;17;9;367;1400;4;402;420;12
22.11.18;13:45:00;1;255;3326;0;2;591;2391;4;635;405;15;3;371;1470;4;417;503;17;4;515;2031;5;537;240;14;5;1278;5170;4;653;554;425;678;24;6;976;3837;4;512;514;595;574;24;7;731;2592;4;784;482;17;8;732;2608;4;785;479;17;9;396;1362;4;438;527;15